This is the latest recevied weather packets stored in our database for station/object W3AJR. If no packets are shown the sender has not sent any weather packets the latest 1 day(s).
| Time | Temp. | Humidity | Pressure | Rain* | Wind** | Luminosity | Snow |
|---|---|---|---|---|---|---|---|
| 1778013924 | 28.33° C | 30% | 1008.8 hPa | 0 mm | 3.13 m/s, 187° | 354 W/m² | - |
| 1778013621 | 28.33° C | 30% | 1008.9 hPa | 0 mm | 4.02 m/s, 160° | 452 W/m² | - |
| 1778013317 | 28.33° C | 29% | 1009 hPa | 0 mm | 4.47 m/s, 210° | 585 W/m² | - |
| 1778013014 | 27.78° C | 29% | 1008.9 hPa | 0 mm | 2.68 m/s, 189° | 486 W/m² | - |
| 1778012711 | 28.33° C | 29% | 1009 hPa | 0 mm | 1.34 m/s, 154° | 437 W/m² | - |
| 1778012406 | 27.78° C | 30% | 1009 hPa | 0 mm | 2.24 m/s, 219° | 423 W/m² | - |
| 1778012104 | 27.78° C | 30% | 1009 hPa | 0 mm | 2.68 m/s, 206° | 393 W/m² | - |
| 1778011801 | 28.33° C | 29% | 1009.2 hPa | 0 mm | 3.58 m/s, 191° | 385 W/m² | - |
| 1778011499 | 28.33° C | 29% | 1008.9 hPa | 0 mm | 4.47 m/s, 196° | 435 W/m² | - |
| 1778011194 | 28.33° C | 30% | 1008.8 hPa | 0 mm | 1.34 m/s, 254° | 541 W/m² | - |
| 1778010892 | 27.78° C | 28% | 1009.3 hPa | 0 mm | 4.02 m/s, 175° | 564 W/m² | - |
| 1778010589 | 28.33° C | 30% | 1009.2 hPa | 0 mm | 3.58 m/s, 161° | 535 W/m² | - |
| 1778010286 | 28.33° C | 31% | 1008.8 hPa | 0 mm | 2.24 m/s, 203° | 539 W/m² | - |
| 1778009986 | 28.33° C | 30% | 1009.1 hPa | 0 mm | 3.13 m/s, 199° | 471 W/m² | - |
| 1778009684 | 28.33° C | 28% | 1009.1 hPa | 0 mm | 3.13 m/s, 185° | 627 W/m² | - |
| 1778009381 | 28.33° C | 29% | 1009.5 hPa | 0 mm | 3.13 m/s, 173° | 595 W/m² | - |
| 1778009080 | 28.33° C | 28% | 1009.5 hPa | 0 mm | 2.24 m/s, 205° | 558 W/m² | - |
| 1778008777 | 28.33° C | 29% | 1009.4 hPa | 0 mm | 3.13 m/s, 181° | 573 W/m² | - |
| 1778008476 | 28.33° C | 27% | 1009.4 hPa | 0 mm | 4.02 m/s, 178° | 617 W/m² | - |
| 1778008172 | 28.33° C | 29% | 1009.8 hPa | 0 mm | 3.58 m/s, 196° | 624 W/m² | - |
| 1778007867 | 28.33° C | 29% | 1009.4 hPa | 0 mm | 3.58 m/s, 150° | 595 W/m² | - |
| 1778007563 | 27.78° C | 29% | 1009.7 hPa | 0 mm | 0.89 m/s, 216° | 650 W/m² | - |
| 1778007261 | 27.78° C | 30% | 1009.8 hPa | 0 mm | 2.68 m/s, 214° | 678 W/m² | - |
| 1778006956 | 27.78° C | 29% | 1009.8 hPa | 0 mm | 4.47 m/s, 189° | 635 W/m² | - |
| 1778006653 | 28.33° C | 30% | 1010.1 hPa | 0 mm | 7.6 m/s, 186° | 632 W/m² | - |
* Rain latest hour (hover to see other rain measurements)
** Current wind speed in m/s (hover to see current wind gust speed)